Regional Weather Roundup
Issued by NWS Grand Forks, ND

Home | Current Version | Previous Version | Text Only | Print | Product List | Glossary Off
Versions: 1 2 3 4 5 6 7 8 9 10 11 12 13 14 15 16 17 18 19 20 21 22 23 24 25 26 27 28 29 30 31 32 33 34 35 36 37 38 39 40 41 42 43 44 45 46 47 48 49 50

000
ASUS43 KFGF 011631
RWRFGF
PRAIRIE TO PINES  WEATHER ROUNDUP
NATIONAL WEATHER SERVICE EASTERN NORTH DAKOTA/GRAND FORKS ND
1100 AM CDT WED JUL 01 2015

 **SATELLITE DATA USED TO AUGMENT SKY COVER AT AUTOMATED STATIONS**
 *****  WEATHER ACROSS EASTERN NORTH DAKOTA  *****

CITY           SKY/WX    TMP DP  RH WIND       PRES   REMARKS
GRAND FORKS    SUNNY     74  58  57 W3        29.94S
GRAND FRKS AFB SUNNY     73  61  65 W2        29.95S
GRAND FRKS NWS   N/A     75 N/A N/A W1          N/A
DEVILS LAKE    SUNNY     70  55  60 SE3       29.96R
FARGO          SUNNY     72  63  73 S8        29.96R
WAHPETON ARPT  MOSUNNY   68  59  73 S9        29.97S
$$

 ***** WEATHER ACROSS CENTRAL AND WESTERN NORTH DAKOTA  *****

CITY           SKY/WX    TMP DP  RH WIND       PRES   REMARKS
BISMARCK       PTSUNNY   71  64  78 NE6       29.95S
MINOT          CLOUDY    67  62  84 N5        29.95S HAZE
JAMESTOWN      CLOUDY    70  60  70 S7        29.95S
MINOT AFB      CLOUDY    68  68 100 NE2       29.94S
GARRISON         N/A     70  62  76 N5        29.95F
WILLISTON      CLOUDY    67  58  72 CALM      29.99S
DICKINSON      CLOUDY    63  59  87 NE5       29.98R FOG
HETTINGER      CLOUDY    64  61  90 NE5       29.99S FOG
$$

 *****  OTHER AIRPORT OBSERVATIONS IN OUR AREA  *****

CITY           SKY/WX    TMP DP  RH WIND       PRES   REMARKS
WALHALLA       FAIR      73  59  60 MISG      29.95F
GRAFTON AIRPOR FAIR      75  55  50 CALM      29.96S
VALLEY CITY AR FAIR      70  61  73 SE6       29.96S
CANDO          PTSUNNY   70  63  78 S6        29.97S
CAVALIER APRT  FAIR      73  57  56 SW6       29.95S HAZE
GWINNER        NOT AVBL
SHEYENNE NWR     N/A     69  64  83 SE6       29.95S
ROLLA          PTSUNNY   66  64  94 S6        29.98S
 ***** THE ABOVE OBSERVATIONS ARE NON NWS ARE NOT QUALITY
       CONTROLLED AND MAY MIS-REPORT RAIN FOR SNOW...
$$

  *****  WEATHER ACROSS NORTHERN MINNESOTA  *****

CITY           SKY/WX    TMP DP  RH WIND       PRES   REMARKS
FLAG ISLAND    SUNNY     70  59  68 S8        29.95S
WARROAD        SUNNY     73  61  64 CALM      29.96S
ROSEAU         SUNNY     75  61  60 CALM      29.96S
HALLOCK        SUNNY     73  59  60 SW1       29.95S
THF RVR FALLS  SUNNY     73  55  53 CALM      29.96S
BAUDETTE       SUNNY     73  55  53 NE5       29.96S
WASKISH        SUNNY     73  63  68 W5        29.97S
CROOKSTON      SUNNY     73  61  64 SW3       29.96S
$$
  *****  WEATHER ACROSS CENTRAL AND WEST MINNESOTA  *****

CITY           SKY/WX    TMP DP  RH WIND       PRES   REMARKS
FOSSTON        MOSUNNY   72  61  68 SW9       29.98R
BEMIDJI        SUNNY     70  61  73 SW3       29.97S
PARK RAPIDS    PTSUNNY   71  60  68 W3        29.98S
ELBOW LAKE     FAIR      67  58  73 S9        29.99R
WADENA         PTSUNNY   68  55  64 S7        30.00R
DETROIT LAKES  MOSUNNY   70  61  73 SW7       30.00R
MOORHEAD       SUNNY     72  61  68 S8        29.97S
FERGUS FALLS   SUNNY     70  59  68 S8        29.98S
MORRIS MN      PTSUNNY   66  57  72 S13       29.98R
STAPLES        CLOUDY    68  54  60 S7        30.01R
$$
  *****  WEATHER ELSEWHERE ACROSS MINNESOTA  *****

CITY           SKY/WX    TMP DP  RH WIND       PRES   REMARKS
DULUTH         MOSUNNY   66  51  58 SW7       30.02S
INTRNTL FALLS  SUNNY    N/A N/A N/A MISG      29.98S
ELY            MOSUNNY   68  48  49 SW3       30.01R
CLOQUET        MOSUNNY   66  48  52 SE3       30.02S
WHEATON        PTSUNNY   63  57  82 SE9       29.99R
BRAINERD       SUNNY     69  47  45 S10       30.01S
HIBBING        SUNNY     66  50  56 VRB6      30.01S
ALEXANDRIA     PTSUNNY   66  57  72 S9        30.01S
SAINT CLOUD    PTSUNNY   63  51  65 SE7       30.01S
MINNEAPOLIS    CLOUDY    61  48  62 E7        30.02R
$$

  *****  WEATHER ACROSS SOUTH DAKOTA  *****

CITY           SKY/WX    TMP DP  RH WIND       PRES   REMARKS
SIOUX FALLS    CLOUDY    66  62  87 SE12      29.93S
BROOKINGS      CLOUDY    64  57  77 SE15      29.97S
WATERTOWN      CLOUDY    63  59  87 SE7       29.96R
HURON          PTSUNNY   73  65  75 SE7       29.91R
SISSETON         N/A     66  61  84 S9        29.94F
ABERDEEN       CLOUDY    72  66  81 SE7       29.93R
MITCHELL       PTSUNNY   73  66  78 SE8       29.91S
PIERRE         CLOUDY    74  65  73 VRB5      29.88S
MOBRIDGE       CLOUDY    74  67  78 SE7       29.90S
RAPID CITY     SUNNY     79  59  50 N24G32    29.98F
$$

  *****  SOME WEATHER IN NEARBY STATES *****

CITY           SKY/WX    TMP DP  RH WIND       PRES   REMARKS
GLASGOW MT     CLOUDY    70  59  68 CALM      30.00F HAZE
GREAT FALLS MT SUNNY     77  53  43 CALM      30.05F
CHEYENNE WY    SUNNY     77  53  43 NE13      30.21S
SCOTTSBLUFF NE SUNNY     82  62  50 NW6       30.05S
OMAHA NE       PTSUNNY   77  68  73 SE15      29.87F
DES MOINES IA  CLOUDY    72  62  71 NE5       29.94R
DAVENPORT IA   CLOUDY    66  59  78 E9        29.97R
CHICAGO IL     CLOUDY    65  54  67 NE6       29.97S
EAU CLAIRE WI  PTSUNNY   64  46  52 NE5       30.02R
LA CROSSE WI   MOSUNNY   64  48  56 E7        30.01R
$$

  *****  SOME NATIONAL WEATHER *****

CITY           SKY/WX    TMP DP  RH WIND       PRES   REMARKS
LA GUARDIA NY  PTSUNNY   78  63  59 W12       29.79S
RALEIGH NC     CLOUDY    82  69  64 SW6       29.98R
ATLANTA GA     CLOUDY    77  67  71 W9G17     30.08F
NEW ORLEANS LA PTSUNNY   87  72  60 SW5       30.13R HX  93
OKLAHOMA CITY  MOSUNNY   86  71  60 SW16      29.93F HX  91
ALBUQUERQUE NM MOSUNNY   79  49  34 S9        30.18F
SALT LAKE CITY MOSUNNY   87  55  33 VRB3      30.09R
LOS ANGELES CA PTSUNNY   69  63  81 SW3       29.92R
BOISE ID       SUNNY     81  53  37 NW5       30.03R
SEATTLE WA     SUNNY     72  54  53 N10       30.06F
$$

*** WEATHER ACROSS MANITOBA...SASKATCHEWAN AND ONTARIO ***
                ***ONTARIO***

CITY           SKY/WX    TMP DP  RH WIND       PRES   REMARKS
GERALDTON      MOSUNNY   64  41  42 N2        29.99F
THUNDER BAY    PTSUNNY   66  45  45 S5        30.00F
SIOUX LOOKOUT  CLOUDY    63  54  72 CALM      29.97S
TORONTO        PTSUNNY   70  57  64 NW14      29.77R
BIG TROUT LK   CLOUDY    64  48  55 NE9       29.91S
PICKLE LAKE    PTSUNNY   61  55  82 S7        29.93F
DRYDEN         MOSUNNY   68  55  64 SW7       29.97S
KENORA         CLOUDY    70  55  60 W3        29.97S
$$
                *** MANITOBA***

CITY           SKY/WX    TMP DP  RH WIND       PRES   REMARKS
BRANDON        MOSUNNY   70  64  83 VRB2      29.95F
DAUPHIN        SUNNY     72  63  73 W9        29.92S
ISLAND LAKE    MOSUNNY   66  57  72 W5        29.90S
PILOT MOUND      N/A     68  61  77 S8          N/A
THE PAS        CLOUDY    68  63  83 NE5       29.88S FOG
THOMPSON       PTSUNNY   72  50  46 NE10      29.91S
WINNIPEG       MOSUNNY   73  64  73 W7        29.94F
LYNN LAKE        N/A    N/A N/A N/A MISG        N/A
CHURCHILL      MOSUNNY   66  43  42 SW3       29.90S
$$
                ***SASKATCHEWAN***

CITY           SKY/WX    TMP DP  RH WIND       PRES   REMARKS
ESTEVAN        CLOUDY    64  63  94 SW5       29.98S FOG
KINDERSLEY     CLOUDY    63  59  88 S6        30.00S SMOKE
LLOYDMINSTER   LGT RAIN  63  59  88 E2        29.97F SMOKE
PRINCE ALBERT    N/A     68  63  83 W7        29.91F
REGINA         CLOUDY    63  57  82 W3        29.99F SMOKE
YORKTON        CLOUDY    66  61  82 VRB2      29.94S HAZE
N. BATTLEFORD  LGT RAIN  63  61  94 W10       29.99S FOG
LA RONGE         N/A     68  59  73 NE8       29.92F SMOKE
SASKATOON      PTSUNNY   64  61  88 W6        29.96F
SWIFT CURRENT  MOSUNNY   70  55  60 W6        30.02S HAZE
$$
NOTE: THESE ARE AUTOMATED STATIONS WITH LIMITED QUALITY CONTROL
      "FAIR" INDICATES FEW OR NO CLOUDS BELOW 12,000 FEET WITH NO
      SIGNIFICANT WEATHER AND/OR OBSTRUCTIONS TO VISIBILITY.
      SKY/WX - SKY CONDITION AND SIGNIFICANT WEATHER.
      TMP - AIR TEMPERATURE.    DP   - DEWPOINT TEMPERATURE.
      RH  - RELATIVE HUMIDITY.  PRES - PRESSURE.
      HX  - HEAT INDEX.         WCI  - WIND CHILL INDEX.
$


USA.gov is the U.S. government's official web portal to all federal, state and local government web resources and services.